Content
SEND FEEDBACK

Daily
Averages
Monthly
Summary
United States of America

SAN RAFAEL, CALIFORNIA


Home > North America > United States > California
Elevation: 30 feet     Latitude: 37 58N     Longitude: 122 32W

WEATHER
 
SELECT A DAY
Number of Records: 173,897;   Date Range: 9/27/07 - 11/21/14
 
SHARE

PRINT THIS DATA

[ ← Previous Day ]
WEATHER ALMANAC - FEBRUARY 20, 2013
[ Next Day → ]
[ °C ]   °F
Weather ElementAverageHighLow
Temperature41.7 °F50 °F (10:15 am)35.6 °F (2:35 am)
Dewpoint32.5 °F35.6 °F (9:35 am)32 °F (1:55 am)
Humidity70.7 %93 % (3:55 am)50 % (10:15 am)
Barometer29.94 in30.01 in (9:55 am)29.87 in (12:55 am)
Wind Speed9 mph13.8 mph (8:55 am)
Wind Gust18.4 mph (1:15 am)
Weather ElementAverage
Visibility10 mi
Wind DirectionWNW (295.2 °)

Weather ElementTotal
Precipitation---
Heating Degree Days22.2 (Base 65)
Averaged from 27 records on February 20, 2013
WEATHER CONDITIONS BREAKOUT
WIND DIRECTION BREAKOUT
WEATHER BY HOUR - FEBRUARY 20, 2013
[ °C ]   °F
Local TimeTemperatureDewpointHumidityBarometerVisibilityWind DirectionWind SpeedGust SpeedPrecipitationEventsConditions
12:55 AM41.0 °F33.8 °F76 %29.87 in10.0 miNNW (330°)10.4 mph
1:15 AM41.0 °F33.8 °F76 %29.88 in10.0 miNW (320°)12.7 mph18.4 mph
1:35 AM41.0 °F33.8 °F76 %29.88 in10.0 miNNW (330°)10.4 mph
1:55 AM41.0 °F32.0 °F70 %29.89 in10.0 miNW (320°)11.5 mph
2:15 AM39.2 °F33.8 °F81 %29.90 in10.0 miNorth (360°)6.9 mph
2:35 AM35.6 °F32.0 °F87 %29.90 in10.0 miNorth (350°)5.8 mph
2:55 AM41.0 °F32.0 °F70 %29.90 in10.0 miNW (310°)10.4 mph
3:15 AM41.0 °F32.0 °F70 %29.90 in10.0 miNW (310°)8.1 mph
3:35 AM41.0 °F32.0 °F70 %29.91 in10.0 miNNW (340°)5.8 mph
3:55 AM35.6 °F33.8 °F93 %29.91 in10.0 miNNE (20°)6.9 mph
4:15 AM35.6 °F33.8 °F93 %29.91 in10.0 miCalm
4:35 AM39.2 °F32.0 °F75 %29.92 in10.0 miNorth (360°)8.1 mph
5:15 AM41.0 °F32.0 °F70 %29.93 in10.0 miNNW (330°)10.4 mph
5:35 AM41.0 °F32.0 °F70 %29.93 in10.0 miNNW (330°)5.8 mph
5:55 AM39.2 °F32.0 °F75 %29.94 in10.0 miNNW (330°)5.8 mph
6:35 AM41.0 °F32.0 °F70 %29.95 in10.0 miWNW (300°)6.9 mph
6:55 AM41.0 °F32.0 °F70 %29.95 in10.0 miNNW (330°)11.5 mph
7:15 AM39.2 °F32.0 °F75 %29.96 in10.0 miNorth (350°)9.2 mph
7:35 AM39.2 °F32.0 °F75 %29.97 in10.0 miCalmClear
7:55 AM42.8 °F32.0 °F66 %29.98 in10.0 miNNW (340°)10.4 mphClear
8:15 AM44.6 °F32.0 °F61 %29.99 in10.0 miNW (310°)11.5 mph18.4 mphClear
8:35 AM44.6 °F32.0 °F61 %29.99 in10.0 miNNW (340°)12.7 mphClear
8:55 AM46.4 °F32.0 °F57 %30.00 in10.0 miNW (320°)13.8 mph18.4 mphClear
9:15 AM46.4 °F32.0 °F57 %30.00 in10.0 miNNW (340°)8.1 mphClear
9:35 AM48.2 °F35.6 °F62 %30.00 in10.0 miNNW (340°)12.7 mphClear
9:55 AM48.2 °F32.0 °F54 %30.01 in10.0 miNNW (330°)12.7 mph18.4 mphClear
10:15 AM50.0 °F32.0 °F50 %30.01 in10.0 miNNW (330°)13.8 mphClear
Hourly data recorded from KDVO, located miles away from San Rafael, California







STORIES FROM OUR PARTNERS